Wind_Speed
31 29 26 24 22 20 18 18 16 11 6 6 7 10 15 16 19 22 24 22 19 15 14 13 13 12 11 11 10 11 12 12 12 12 13 13 14 15 15 14 15 15 16 15 15 15 16 18 19 21 24 25 27 28 27 27 28 29 29 29 30 31 33 36 36 33 32 33 33 33 34 36 37 37 37 36 36 35 34 33 30 25 22 19 16
32 29 26 24 22 19 17 16 15 11 7 6 7 11 15 17 19 22 23 23 20 17 15 14 14 12 11 11 11 12 12 12 12 12 13 13 14 14 13 13 14 14 14 14 14 14 15 16 17 18 21 23 25 26 26 26 27 28 28 28 29 30 32 34 36 35 32 33 34 33 35 37 38 38 38 37 37 37 37 37 35 31 27 24 21
33 30 26 24 22 19 17 15 14 12 8 6 7 11 15 17 20 23 24 23 20 18 16 14 14 13 12 12 12 12 12 12 13 13 12 13 13 12 12 12 12 12 12 13 13 13 14 15 16 17 18 21 23 24 24 25 25 26 27 27 28 29 31 33 35 35 34 33 33 33 34 37 39 39 40 40 38 38 39 39 38 35 32 29 27
34 31 27 24 22 20 17 15 14 12 8 7 7 11 16 18 20 23 24 24 21 19 16 14 14 14 12 12 12 12 12 13 13 13 12 12 12 12 12 12 11 11 11 11 12 12 12 13 15 15 16 19 21 22 23 23 23 24 25 26 27 28 30 31 33 35 35 33 32 32 33 35 38 39 41 42 40 39 40 41 41 39 36 34 31
35 33 28 24 22 21 18 15 14 13 9 8 8 13 17 19 21 23 25 25 23 20 17 15 14 14 13 12 13 13 13 13 12 13 12 12 11 11 11 11 11 10 10 10 10 10 11 12 12 13 15 17 18 20 21 21 22 22 24 25 26 27 29 30 31 33 35 34 31 30 31 33 35 38 41 43 42 41 42 43 44 42 41 39 35
35 33 29 25 23 21 18 15 14 14 11 9 10 13 18 20 21 23 24 25 24 21 19 17 15 16 15 14 14 14 13 13 12 12 12 12 11 10 10 10 9 9 8 8 8 9 9 10 11 11 13 15 16 18 19 20 20 21 22 23 25 26 27 29 30 31 33 34 33 30 30 31 33 35 38 42 43 43 43 45 46 46 45 43 40
35 33 30 26 24 22 19 16 15 15 13 11 11 14 18 20 22 23 23 25 25 22 20 18 17 17 17 15 14 14 14 13 13 12 12 11 10 9 8 8 7 7 7 7 7 8 8 8 9 10 12 13 14 16 17 18 18 19 21 22 23 25 26 27 29 30 31 32 33 32 31 31 31 32 34 37 41 43 43 45 47 48 48 47 44
34 32 30 28 25 24 22 18 16 16 15 12 12 14 18 21 22 22 23 24 24 23 22 20 18 19 18 16 15 15 15 14 14 13 12 11 10 9 8 7 6 6 5 5 6 6 7 7 8 9 11 12 13 14 16 17 17 18 19 20 22 23 25 26 27 28 29 30 31 32 32 31 30 30 31 33 35 38 41 43 45 46 48 47 46
33 31 31 29 27 25 24 20 17 16 17 14 13 14 18 21 22 23 23 24 24 24 23 21 20 21 20 17 16 16 15 15 14 13 13 11 10 8 7 6 5 4 4 4 4 5 6 7 8 9 10 11 12 13 14 15 15 16 18 19 20 22 23 25 26 27 28 28 29 31 32 32 31 30 30 30 31 33 36 39 41 43 45 45 45
33 31 31 30 28 27 26 22 18 17 18 16 14 15 18 22 23 23 24 24 24 24 23 22 22 23 22 19 17 17 16 16 15 14 13 11 10 8 6 5 4 3 3 3 4 5 6 6 7 8 9 10 11 12 13 13 14 15 16 17 18 20 22 23 24 25 26 27 28 29 30 31 32 31 30 29 30 30 31 33 36 38 40 41 43
33 32 32 31 30 30 28 24 20 18 18 17 15 14 18 21 22 24 25 25 25 25 24 22 23 25 23 20 19 18 17 16 15 14 13 11 9 8 7 5 4 3 3 3 3 4 4 5 6 7 8 9 10 11 11 12 12 13 14 15 16 17 19 21 23 24 25 26 27 28 29 29 30 30 30 30 29 29 29 29 30 32 34 36 37
34 34 34 33 33 32 29 25 22 20 19 18 16 15 18 21 23 24 25 26 25 25 25 23 25 26 24 21 20 19 17 16 15 14 13 11 10 8 7 6 5 4 3 3 2 2 3 4 5 6 7 8 9 9 9 10 11 11 12 13 14 15 16 18 20 21 23 24 25 26 27 28 28 29 29 30 30 29 28 28 28 29 30 31 32
34 35 36 36 35 33 30 27 24 22 21 19 17 15 17 21 24 25 26 26 25 25 24 24 25 26 24 22 21 19 18 17 15 14 13 11 10 9 8 7 6 5 4 3 2 1 2 3 4 5 6 7 7 8 8 8 9 10 10 11 12 12 14 15 17 19 20 22 23 24 26 27 27 28 28 28 29 29 28 28 28 28 28 27 27
35 35 37 38 36 34 32 29 26 24 22 20 18 16 17 21 24 25 26 27 27 25 24 24 25 25 25 23 21 20 19 17 15 14 13 12 11 9 8 7 6 5 4 3 2 1 0 1 3 4 5 6 6 7 7 7 7 7 8 9 10 11 12 13 15 16 18 19 21 22 23 24 25 27 27 27 27 27 27 28 28 28 28 27 27
37 37 38 39 37 34 32 30 28 26 24 21 18 17 17 19 23 25 27 28 28 26 25 24 24 24 24 23 22 20 19 17 16 15 14 13 12 11 9 8 7 6 5 4 3 2 1 1 2 3 4 5 5 6 6 5 5 6 6 6 7 9 10 12 13 14 15 17 18 19 20 21 22 24 25 26 26 26 26 27 27 27 27 28 28
38 39 40 40 38 35 33 31 29 27 25 22 20 18 18 19 23 26 27 28 28 27 26 24 23 23 23 23 22 21 19 18 17 16 15 14 13 12 11 10 9 8 6 5 4 3 2 2 2 3 4 4 5 5 5 5 5 5 5 5 6 7 8 10 11 13 13 15 16 17 17 18 19 20 21 23 24 25 25 26 26 26 26 26 27
39 39 40 40 39 37 34 31 31 29 26 23 21 20 20 21 23 26 28 29 29 29 28 26 24 23 22 22 22 21 20 18 17 17 16 15 14 14 13 12 11 10 8 7 6 5 4 3 3 4 4 5 5 5 6 5 5 5 5 5 5 5 6 7 9 11 12 13 14 15 16 16 17 18 19 20 21 22 23 24 25 25 25 25 25
41 39 39 40 40 38 35 33 32 30 26 24 23 23 22 22 24 26 28 30 30 30 29 28 26 24 23 23 22 21 20 19 18 18 18 17 16 15 14 14 13 12 11 9 8 8 7 6 6 6 7 7 7 7 7 7 6 6 6 6 5 5 5 6 7 8 10 12 12 13 14 15 15 16 17 18 19 20 21 22 22 23 23 24 24
43 40 39 40 40 38 35 32 32 31 28 26 26 25 24 23 24 26 28 29 30 31 31 30 29 27 25 24 23 21 20 20 20 19 19 18 17 16 16 16 15 15 13 12 11 10 10 9 9 9 10 10 10 10 9 8 8 8 7 7 7 6 5 6 6 7 9 10 11 12 12 13 14 15 16 17 18 18 19 20 20 21 21 22 22
45 42 40 40 40 38 34 32 33 32 29 28 27 26 24 24 25 26 27 28 30 32 33 32 31 30 29 27 26 24 23 22 21 21 20 19 19 18 18 18 17 17 16 15 14 13 13 12 12 12 12 13 13 13 12 11 10 10 9 9 9 8 7 7 7 8 8 9 10 11 11 12 13 14 15 15 16 17 17 18 18 19 19 20 21
48 45 42 41 42 40 36 33 34 33 31 30 29 27 25 25 25 26 27 28 30 31 32 32 31 30 30 30 29 28 26 25 24 23 22 21 21 20 19 19 19 18 18 18 17 17 16 15 15 15 15 15 15 15 14 13 13 12 11 11 10 10 10 9 8 9 9 9 10 11 11 11 12 12 14 14 15 15 16 16 17 17 18 19 20
50 48 44 43 44 42 38 35 35 35 34 32 30 28 27 26 26 27 28 28 29 29 30 31 31 30 30 30 30 30 29 28 27 26 25 25 24 23 22 22 21 20 20 20 20 20 19 18 17 17 17 17 17 17 16 15 14 14 13 13 12 12 11 11 11 10 10 10 11 11 12 13 12 12 13 13 14 15 15 15 16 17 17 18 19
51 50 48 46 46 45 41 38 38 37 36 33 31 29 28 27 27 27 28 29 28 28 28 29 30 31 30 30 30 30 30 30 29 28 28 28 27 27 26 25 24 24 23 24 24 23 22 21 20 19 19 19 19 18 17 16 16 16 15 15 14 13 13 13 13 12 12 12 12 12 13 13 14 14 14 14 15 15 16 16 16 17 17 18 19
53 52 51 50 48 47 43 40 40 40 38 35 33 32 30 29 28 27 28 29 28 27 27 28 29 29 29 30 32 32 32 31 30 29 28 28 28 28 28 27 27 26 26 26 26 25 24 22 21 21 21 21 21 20 19 17 17 17 16 16 16 15 15 14 14 14 14 13 13 13 14 14 15 16 16 16 16 17 17 17 18 18 18 18 19
54 55 54 52 51 50 46 43 41 41 40 37 35 34 32 31 29 27 27 28 28 27 26 26 26 26 26 28 30 31 32 31 29 28 27 27 28 28 28 28 28 28 27 27 27 26 24 23 22 21 21 21 21 21 20 18 18 18 18 17 17 17 16 16 16 16 16 15 15 15 15 15 16 17 18 18 19 19 19 19 19 20 19 20 20
51 53 54 52 51 51 49 44 42 42 41 39 37 35 34 32 30 28 28 28 27 26 24 24 24 24 25 26 27 28 29 28 26 25 24 25 26 26 26 27 27 27 26 26 26 25 24 22 21 21 21 22 22 21 20 19 19 19 19 19 19 18 18 18 18 18 18 17 17 17 17 17 17 18 19 20 20 21 21 21 21 21 22 21 22
50 51 52 52 50 49 49 45 42 42 42 39 38 36 34 33 31 30 29 28 27 25 23 23 22 22 23 24 25 26 26 25 23 22 22 22 23 23 24 24 25 25 25 25 25 24 23 22 21 21 21 21 22 21 21 20 20 20 20 21 21 20 20 19 20 20 20 19 19 19 19 19 19 19 19 20 21 22 23 23 23 23 24 23 23
51 51 52 53 52 51 50 47 43 42 41 38 37 36 34 33 32 31 30 28 27 25 23 22 21 21 22 23 24 24 23 23 22 21 21 21 21 21 22 22 23 23 23 23 23 23 22 22 21 20 21 21 22 22 22 22 21 21 22 23 23 22 22 21 21 21 21 21 21 21 20 20 20 21 21 21 22 23 23 24 25 25 25 25 25
54 52 52 53 54 53 52 49 46 44 41 39 37 35 34 33 31 30 29 28 27 26 24 23 23 22 21 21 22 23 23 24 23 22 21 21 20 19 19 20 21 21 21 21 21 22 22 21 21 20 21 22 22 22 22 23 23 23 24 24 25 24 24 23 23 23 23 23 23 23 22 22 22 22 22 23 23 23 24 25 26 26 26 26 26
58 54 54 54 54 54 53 51 48 46 44 42 40 37 35 33 31 30 30 29 28 27 26 26 26 23 21 20 20 21 23 25 25 24 22 20 18 18 18 19 19 19 19 20 20 20 20 20 20 20 21 21 22 22 23 23 24 25 25 25 26 26 26 25 25 25 24 25 25 25 24 24 24 24 24 24 25 25 25 26 26 27 27 28 28
63 59 56 55 55 56 56 54 51 50 48 46 44 41 37 34 32 32 32 32 31 31 30 31 31 30 27 25 25 25 24 25 26 25 23 20 18 17 17 18 18 18 19 19 19 19 19 19 19 20 20 20 20 21 22 23 24 25 25 26 26 26 27 27 27 26 26 26 26 26 26 26 26 27 26 26 27 27 28 28 28 28 29 29 29
67 65 61 57 57 59 59 57 54 52 51 49 45 42 40 37 33 33 35 34 34 33 33 33 34 35 35 34 33 31 28 25 25 25 24 23 20 18 17 17 17 17 17 17 18 18 18 18 19 19 19 19 19 19 20 21 22 23 24 25 26 26 27 27 27 27 26 26 26 27 27 27 27 28 28 28 29 29 29 30 30 31 31 31 31
71 70 65 56 55 60 62 60 57 55 54 51 46 41 40 40 38 36 36 37 37 37 37 37 36 36 38 37 36 34 32 28 27 26 26 25 24 21 18 17 17 17 17 17 17 17 17 17 18 18 19 18 18 18 19 20 21 21 23 24 25 26 27 27 27 27 27 27 27 27 27 27 27 28 28 29 29 30 30 31 32 32 33 33 33
76 74 69 59 53 58 64 64 62 61 57 53 47 44 44 44 43 42 40 39 40 42 42 42 41 39 40 39 37 35 35 32 29 28 28 28 27 24 20 17 17 17 18 18 17 16 17 17 17 18 19 19 18 18 18 19 20 21 22 23 25 26 27 27 28 28 28 27 28 28 28 28 28 28 28 28 28 29 29 30 31 32 33 33 33
81 78 76 69 61 60 64 65 65 64 60 55 52 51 51 50 48 47 46 44 43 46 48 48 46 42 41 40 38 37 36 34 31 29 29 29 28 26 22 19 18 18 19 18 18 17 17 17 17 17 18 19 19 18 18 18 19 20 22 23 24 25 27 28 28 28 28 28 29 29 30 30 30 29 29 28 28 29 29 28 28 30 31 31 31
86 84 81 77 72 67 65 66 66 66 63 58 55 55 55 54 51 50 50 50 49 51 52 52 49 45 42 42 40 40 38 35 31 29 29 28 28 27 24 21 20 20 20 19 19 19 18 18 18 18 19 19 19 19 19 19 19 20 21 22 24 24 26 27 28 29 29 29 30 30 31 31 32 31 31 30 30 30 30 30 29 29 30 29 29
90 88 84 81 78 74 70 67 67 68 66 62 57 56 57 56 53 53 53 52 50 51 52 52 50 47 45 44 43 42 40 35 31 30 30 29 28 27 25 22 21 21 21 21 20 19 19 18 18 19 19 19 19 19 19 19 19 20 21 23 24 24 25 26 27 28 29 30 30 31 32 33 33 33 32 32 32 32 32 32 31 30 30 28 27
92 90 87 84 82 79 75 71 69 68 69 67 61 59 60 59 57 56 55 54 51 50 50 51 50 48 47 46 45 43 42 38 34 33 32 30 29 27 25 23 22 21 22 22 22 21 21 20 20 20 21 20 20 20 20 20 20 21 22 24 24 25 26 26 26 27 28 29 30 31 32 33 34 33 33 34 34 34 33 33 32 32 31 29 27
94 92 91 87 85 83 81 77 72 69 70 70 66 62 61 61 61 60 57 56 56 54 51 50 51 50 47 46 46 44 43 42 38 35 33 32 31 28 26 24 22 22 22 22 23 24 24 24 23 22 22 22 22 22 22 22 22 22 23 25 26 27 28 27 26 26 27 28 29 30 32 33 34 34 34 35 35 36 35 34 33 33 32 30 29
96 95 93 90 88 87 86 82 78 74 73 73 70 66 62 60 62 64 62 60 59 58 55 53 53 50 48 47 46 45 45 45 42 36 33 33 32 29 27 25 23 23 23 23 25 25 26 26 26 25 24 24 23 23 23 23 23 23 24 25 27 28 29 28 27 27 27 27 27 28 30 32 33 33 34 35 36 36 36 35 35 34 33 31 30
98 98 96 93 89 89 89 87 83 79 77 75 74 72 67 62 63 67 66 63 62 62 60 57 54 51 49 48 46 46 46 46 43 37 34 34 34 30 27 25 24 24 24 25 26 27 28 29 29 28 27 26 26 25 26 25 25 25 26 26 27 29 29 29 28 28 27 27 26 27 28 30 31 32 33 33 34 35 36 36 36 36 34 33 33
100 101 101 98 92 90 91 90 87 83 80 79 78 77 73 66 65 70 70 66 65 66 64 59 55 53 51 49 47 46 46 47 45 39 35 33 33 30 27 26 26 26 27 28 29 29 30 31 31 31 30 29 28 28 28 28 28 28 28 28 29 29 29 28 29 29 28 27 26 26 27 28 29 30 30 31 32 34 35 37 37 36 35 35 35
101 103 104 101 96 93 92 91 91 88 85 83 83 82 79 72 68 71 72 68 67 68 66 61 56 54 52 50 48 47 47 47 46 44 39 35 32 30 30 29 28 29 30 30 31 32 33 33 33 33 32 31 30 30 31 31 30 30 30 29 30 30 29 29 29 30 30 28 27 27 27 27 27 28 28 29 31 33 34 36 36 36 36 37 37
104 105 106 104 100 97 95 93 92 90 88 87 87 86 85 81 75 73 73 71 69 69 68 64 60 57 55 53 50 49 48 48 49 48 47 43 39 36 34 32 31 31 33 34 34 35 35 35 35 34 34 33 33 33 34 33 33 32 32 31 31 31 30 29 30 32 31 30 29 28 27 27 27 27 28 29 30 32 33 34 35 35 37 37 37
106 105 107 106 104 103 101 97 95 93 92 91 90 88 87 84 79 74 73 72 71 69 68 66 64 60 57 56 54 52 51 50 50 49 48 47 44 41 38 36 34 34 35 37 37 38 38 37 36 36 36 36 35 35 36 36 35 34 34 33 32 32 31 30 31 33 33 31 30 29 29 29 29 29 29 30 30 32 33 33 34 35 36 37 37
110 107 108 109 108 107 106 103 100 98 96 94 93 91 89 87 82 77 75 74 73 69 65 64 65 63 60 58 56 54 53 53 53 52 50 48 45 43 41 39 38 37 38 40 40 40 39 38 38 38 39 38 37 37 38 38 38 37 36 34 32 32 31 32 33 34 33 31 31 31 31 32 32 31 31 31 31 31 32 33 34 35 36 37 38
114 111 111 111 111 110 110 107 104 101 100 97 96 95 94 91 87 83 80 78 77 73 67 64 64 64 63 61 59 57 56 56 54 54 53 49 46 44 43 42 41 41 42 42 42 41 40 40 40 40 41 40 39 39 40 41 40 39 37 35 33 33 33 34 34 34 33 32 32 32 33 34 34 33 32 32 32 32 32 32 33 34 35 37 38
117 115 113 113 113 113 112 110 107 104 102 100 98 98 97 95 92 88 85 82 80 77 73 70 67 66 65 64 62 61 60 58 56 55 54 51 48 47 46 45 45 45 44 44 43 42 42 42 42 43 43 43 42 42 44 44 42 40 38 36 35 35 35 35 35 34 33 33 33 34 35 36 35 34 34 33 33 32 31 32 32 33 34 36 37
120 118 116 114 113 113 114 113 110 107 105 103 101 100 99 97 95 91 88 86 84 81 77 75 72 70 68 67 66 64 63 61 60 58 57 54 52 51 49 48 48 47 46 45 44 44 45 45 44 45 47 46 45 46 48 46 43 40 39 38 38 37 37 36 36 35 33 34 35 36 36 36 36 35 35 34 33 32 31 31 32 33 34 36 37
122 121 119 116 114 115 116 116 113 111 108 106 104 102 100 99 97 94 91 88 87 85 81 78 75 73 71 70 69 67 66 64 63 62 61 57 54 52 52 51 51 49 48 47 47 47 48 48 48 50 51 50 49 49 49 48 45 43 41 40 39 39 37 36 36 35 34 36 37 37 36 36 36 36 35 34 32 31 30 30 30 32 34 35 36
123 123 121 119 116 116 117 117 116 113 111 109 107 104 102 100 98 97 94 92 90 88 84 82 79 76 73 72 71 69 68 66 65 63 61 57 55 54 53 53 52 51 50 50 50 51 52 52 52 53 54 54 53 52 52 52 49 46 43 42 41 40 39 37 36 35 36 39 39 37 36 37 36 35 34 33 32 29 27 27 29 31 33 34 35
Wind_Direction
271 269 267 272 281 289 295 299 305 302 275 253 230 201 197 190 178 176 180 183 182 175 165 156 152 148 142 138 140 146 145 136 129 124 120 116 111 108 104 96 89 85 83 80 74 68 60 55 53 49 45 44 42 40 42 44 46 49 50 49 49 47 46 46 46 47 49 52 56 59 58 55 52 51 50 49 48 45 42 40 39 39 40 41 42
263 263 263 267 275 281 286 292 297 294 272 256 235 207 198 190 180 175 179 183 182 176 168 161 158 156 151 147 148 151 150 142 133 127 123 120 119 115 110 101 94 89 84 78 73 68 61 55 52 48 45 43 42 39 40 43 46 49 50 49 49 48 47 46 46 46 47 50 53 57 58 55 52 50 49 48 47 45 42 40 40 42 45 47 49
256 257 258 264 270 272 278 285 288 289 276 254 235 213 201 192 183 176 178 182 181 176 171 165 164 164 160 156 155 155 154 147 139 131 128 126 123 119 114 107 99 92 86 79 75 71 65 59 55 50 46 44 41 38 39 42 45 48 50 49 48 48 48 47 46 46 46 48 51 54 56 55 52 51 50 49 48 47 44 42 43 46 49 52 55
250 251 254 259 263 265 271 276 279 282 272 247 225 212 204 194 186 179 177 181 181 179 175 171 171 172 168 162 159 160 158 154 145 137 134 130 126 122 117 112 104 97 91 85 78 74 69 63 59 53 48 44 40 38 39 42 45 47 50 50 49 48 48 47 47 46 46 47 48 50 52 52 52 51 51 50 50 49 48 45 46 49 52 54 57
244 245 249 253 256 259 264 265 269 272 263 242 220 209 205 197 189 182 178 180 181 182 180 177 176 177 174 167 162 162 161 158 152 145 140 136 132 128 122 116 109 102 95 89 81 75 70 65 61 54 48 44 39 38 39 42 44 46 49 50 49 48 49 48 47 47 47 46 45 46 48 49 49 50 52 52 51 52 51 49 48 50 53 55 57
239 241 244 247 249 253 255 255 259 265 259 242 221 208 206 201 192 186 180 179 182 185 185 183 183 183 181 174 166 163 162 161 157 152 146 142 138 133 127 120 113 107 101 94 85 77 70 65 59 52 47 42 38 38 41 42 43 44 47 49 49 48 48 48 48 47 47 47 45 43 44 47 48 49 52 53 53 53 53 53 52 52 54 56 57
235 238 240 241 242 245 246 245 250 259 259 245 226 208 205 203 195 188 182 180 184 187 188 189 190 189 187 180 172 166 163 162 161 156 151 146 143 138 133 125 119 115 108 99 91 81 74 65 55 48 43 39 37 40 42 44 44 43 45 47 48 47 47 47 47 47 46 46 45 43 43 45 47 49 51 53 53 53 53 53 53 54 56 58 59
232 235 237 236 237 239 240 240 242 253 258 250 231 209 202 203 198 190 184 182 185 187 189 193 195 193 190 184 178 171 166 164 163 160 155 153 149 146 142 134 127 121 112 103 93 85 74 61 52 43 38 36 38 41 44 45 45 44 43 44 46 47 47 46 46 46 46 45 45 44 44 44 45 47 49 51 51 51 51 52 53 54 56 58 59
226 230 233 232 232 235 237 237 236 245 254 251 234 213 200 200 199 193 187 185 187 189 190 195 197 194 191 187 183 176 169 166 165 164 162 160 159 158 154 147 140 132 120 104 89 77 65 52 45 39 34 34 37 42 45 46 47 45 43 42 44 46 47 47 46 46 45 45 45 44 43 43 44 45 47 48 48 48 49 51 53 54 55 56 57
219 222 227 230 231 232 233 235 233 238 249 249 237 219 202 199 199 195 189 188 190 191 192 196 197 194 191 190 188 182 175 171 170 169 168 167 168 169 168 163 158 148 124 101 81 68 58 49 41 36 34 33 36 41 45 46 48 47 44 42 41 43 46 47 47 46 45 45 45 44 44 43 43 45 46 46 46 45 46 49 53 55 56 56 56
215 216 223 228 230 230 231 232 230 231 242 245 238 222 205 199 199 197 193 192 194 194 194 195 194 192 191 191 192 188 183 179 177 175 174 174 176 176 176 174 170 161 141 114 89 71 59 48 40 34 31 32 35 40 44 47 48 48 45 41 39 39 43 45 46 45 45 45 44 44 44 43 43 44 46 46 46 44 43 44 48 53 56 56 56
215 216 221 226 229 229 230 231 228 226 233 237 233 222 206 198 197 198 197 197 198 198 195 194 192 191 191 193 195 194 191 188 185 183 181 180 181 181 179 177 174 170 160 144 113 83 61 47 38 31 29 29 32 36 41 44 47 49 46 42 38 35 36 42 44 43 43 45 44 44 45 44 43 43 44 46 47 45 42 42 43 46 49 53 55
214 217 221 224 226 226 227 229 226 223 227 230 228 222 209 198 197 198 199 200 203 202 198 194 192 192 192 194 198 199 198 196 193 190 188 187 188 186 183 181 180 179 174 163 146 103 58 38 31 26 25 26 28 31 35 38 42 47 46 43 38 32 30 33 39 41 40 42 44 44 44 44 43 43 43 44 46 46 45 43 42 41 42 45 50
213 218 221 222 222 223 225 226 223 221 223 225 222 219 211 202 198 197 198 201 204 206 204 199 194 193 194 196 199 203 204 203 200 197 195 196 194 191 189 189 189 188 184 179 171 156 50 17 14 11 13 17 21 26 30 31 35 40 44 43 36 30 26 24 28 35 37 38 40 42 43 43 43 43 42 42 43 44 45 44 43 42 40 40 41
214 218 220 220 220 221 223 222 220 219 220 221 219 215 210 204 200 198 199 201 204 206 208 205 199 196 197 198 201 205 208 209 208 206 204 203 201 197 194 196 200 200 195 194 197 206 230 306 338 347 354 360 6 14 21 23 24 30 36 39 35 28 24 19 18 23 30 33 35 37 39 40 40 41 41 40 40 40 41 42 41 41 40 38 37
215 217 218 219 218 219 222 219 217 217 217 218 218 213 208 203 201 200 201 202 203 205 208 210 206 202 201 201 203 207 211 214 216 215 214 212 207 203 200 201 207 208 205 204 209 217 231 257 293 318 329 337 345 352 360 5 9 15 20 24 27 23 19 17 13 11 18 26 30 31 33 34 35 36 36 36 37 37 38 38 38 37 37 36 36
214 216 218 219 218 218 220 218 216 215 215 216 218 214 207 202 201 201 201 202 203 204 206 209 208 206 204 205 208 211 214 218 220 221 221 220 215 209 206 207 212 215 214 215 219 231 241 256 280 294 306 314 323 330 337 344 351 356 1 3 8 10 8 8 7 4 6 15 24 27 26 27 28 28 28 30 32 34 35 37 36 35 33 32 31
214 216 218 219 218 218 219 217 215 213 211 213 216 215 208 201 201 202 202 202 204 205 206 207 207 205 205 207 210 214 217 219 221 224 225 225 221 216 213 213 218 223 225 227 234 243 253 263 275 284 293 300 305 313 320 326 333 340 345 347 349 350 350 351 353 354 356 2 12 20 23 22 20 19 20 23 26 29 31 33 33 32 31 29 26
215 215 218 219 219 219 219 217 214 211 209 211 214 213 209 202 201 204 204 203 204 205 207 208 207 205 204 206 208 211 216 220 223 226 228 229 227 223 221 221 224 230 234 238 244 251 258 266 274 281 288 294 299 304 311 318 323 329 334 338 338 336 332 331 332 335 342 349 356 7 15 16 15 13 14 15 18 22 26 29 29 28 28 26 24
217 216 217 220 219 219 220 217 214 212 210 211 213 212 209 204 201 204 207 206 205 207 209 211 210 207 204 205 207 209 213 218 223 227 230 232 232 230 228 228 230 235 240 245 251 256 262 268 274 280 287 293 297 302 308 314 318 322 326 330 332 332 327 322 318 319 326 333 340 348 357 5 7 8 9 10 11 14 18 21 23 22 21 20 19
219 217 216 220 220 219 219 217 215 215 213 212 211 210 209 206 202 203 208 209 208 209 212 215 217 215 211 207 207 209 212 216 222 227 232 235 236 236 235 236 239 242 247 252 256 261 267 273 278 283 289 294 298 303 307 311 314 317 320 323 327 329 328 323 317 313 314 318 325 331 337 346 353 357 360 2 3 5 7 10 12 12 11 10 10
218 217 217 219 221 220 219 217 215 216 215 212 209 209 209 207 202 203 208 211 211 210 212 215 219 222 222 218 214 212 214 217 221 226 231 236 238 239 240 241 244 248 253 257 261 265 270 276 281 286 290 294 297 301 305 308 311 312 315 319 322 325 326 325 321 316 312 311 313 318 324 329 334 339 343 347 349 351 353 355 357 358 359 359 359
218 216 216 218 220 220 219 216 215 216 216 212 208 207 209 208 204 204 208 212 213 211 211 213 216 220 224 224 222 220 219 220 222 226 230 235 239 241 242 243 246 250 254 259 263 267 271 277 282 286 289 293 295 299 302 306 308 310 312 315 318 321 322 323 322 320 316 312 310 310 313 317 321 324 327 330 332 335 337 339 342 345 346 347 347
218 216 215 216 218 219 219 216 214 216 215 211 208 206 207 209 207 205 207 211 213 212 210 211 213 216 219 221 222 223 223 223 224 225 229 234 238 242 245 247 249 252 256 259 264 268 272 277 281 284 287 290 292 296 299 302 305 307 309 311 313 316 318 319 319 319 318 315 312 310 309 309 311 314 316 318 320 322 324 327 329 332 334 336 337
217 217 215 216 216 217 217 216 214 215 214 212 209 207 208 209 208 207 209 210 212 212 210 209 211 213 216 219 220 222 224 225 226 225 227 231 237 242 246 249 252 256 258 261 264 268 273 276 279 282 285 288 290 293 296 299 302 304 305 306 308 310 312 314 315 315 316 316 314 312 310 308 307 307 308 310 312 314 316 318 320 322 325 326 328
218 219 218 217 218 219 218 217 215 215 214 213 211 210 210 210 209 210 211 211 211 211 211 209 207 209 211 215 219 223 226 228 228 227 227 230 235 240 246 250 254 257 259 261 264 268 272 275 278 280 282 285 288 291 294 297 299 300 301 302 304 307 309 310 311 312 313 314 315 314 313 310 308 306 306 306 307 309 310 311 313 315 317 319 320
218 218 219 218 219 221 221 220 218 217 216 214 213 212 212 212 212 212 213 214 213 212 213 211 207 206 207 209 214 220 225 229 229 228 227 228 232 237 243 249 253 256 257 259 263 267 270 272 274 277 280 282 286 289 293 295 296 297 298 300 303 306 307 308 309 310 312 313 315 314 314 312 311 309 307 306 306 307 307 308 309 311 313 314 315
221 217 217 218 218 218 219 219 218 219 220 218 216 216 215 215 214 215 216 217 217 216 216 215 211 209 208 208 211 216 220 225 227 227 226 226 227 232 238 245 250 254 256 258 261 264 267 270 273 276 278 281 284 287 290 293 296 296 297 300 303 306 308 309 309 310 311 312 313 314 313 313 312 311 310 308 307 307 307 308 308 309 310 311 312
225 220 217 217 219 218 216 215 215 216 217 219 220 220 220 220 218 219 221 220 219 219 220 220 220 219 216 213 213 214 217 220 223 224 225 224 223 225 231 240 245 250 254 257 260 262 266 270 273 276 278 281 284 288 291 294 297 299 300 302 305 307 309 310 310 310 310 310 311 311 311 311 311 310 309 309 308 307 307 307 308 308 309 310 311
227 223 218 215 217 219 216 213 213 213 213 214 216 217 219 222 222 222 225 224 221 221 222 224 225 225 226 228 227 222 219 221 224 227 228 227 224 222 225 233 240 246 250 254 257 260 263 268 273 276 278 282 285 290 294 297 299 301 303 305 307 308 308 309 310 310 310 310 310 310 310 309 309 309 308 308 307 306 306 306 306 306 307 308 309
225 226 222 215 213 216 216 213 211 212 213 213 213 213 212 216 223 229 229 226 223 221 222 223 223 222 222 227 232 231 228 227 229 232 234 233 229 225 225 229 236 241 246 249 253 257 261 265 270 273 277 281 286 290 294 296 299 301 303 305 306 306 307 307 308 308 308 309 308 308 309 309 308 308 307 307 306 305 305 304 304 305 305 306 307
220 223 224 218 212 212 213 214 212 211 212 214 214 213 207 205 214 229 236 233 228 226 225 225 224 222 220 220 222 226 228 230 233 237 241 241 237 232 229 231 235 239 243 247 251 256 259 263 267 272 276 280 283 287 290 293 296 298 300 302 303 304 305 304 304 304 305 305 306 306 306 307 307 307 306 305 305 304 304 303 303 304 304 304 305
216 219 221 218 215 212 210 212 214 213 212 212 212 214 213 204 202 214 230 237 236 232 229 229 229 228 226 222 220 222 224 225 228 235 242 244 243 239 234 236 240 242 243 246 250 254 258 262 266 271 276 280 282 284 287 291 295 298 299 300 301 303 304 305 304 304 304 303 303 302 303 304 304 304 304 304 304 303 303 304 304 303 303 303 304
214 216 216 212 212 213 211 211 213 214 213 210 207 210 215 212 204 202 212 226 236 238 235 231 230 230 229 227 224 223 224 224 224 228 235 242 245 245 241 241 243 245 247 250 253 255 258 261 265 270 276 282 286 289 291 294 297 301 303 303 304 305 307 308 309 309 307 305 303 301 300 300 299 299 301 302 303 303 303 303 304 304 303 304 305
214 215 215 211 208 210 212 211 212 213 213 208 206 208 211 213 211 206 204 211 225 235 237 234 231 229 228 228 226 226 228 228 227 226 230 237 244 246 245 244 247 250 253 257 258 258 261 264 268 273 278 285 292 297 298 300 302 305 307 308 309 310 311 311 312 311 310 307 304 303 301 299 298 297 298 298 299 300 301 303 303 304 303 303 304
214 214 215 213 210 210 211 211 210 212 212 208 207 210 210 212 215 212 208 208 215 223 230 232 233 231 228 226 226 227 230 233 234 233 232 235 240 244 246 246 250 255 259 262 265 266 269 270 273 277 280 285 293 298 300 303 304 306 307 308 310 312 312 313 313 313 312 310 307 305 303 301 300 299 298 297 296 296 297 299 301 302 302 300 301
214 214 214 214 213 212 210 209 208 210 211 208 208 211 211 211 214 215 214 214 216 221 224 227 231 232 230 227 224 225 229 233 237 239 238 239 240 243 246 247 251 257 263 268 272 274 274 273 273 276 280 285 291 294 297 300 302 304 305 306 308 311 312 314 316 315 314 312 309 306 304 302 301 301 300 298 296 295 294 295 296 298 299 299 301
213 214 214 214 214 213 212 209 207 208 210 210 208 210 211 210 211 214 217 218 221 225 226 226 227 229 230 229 226 224 227 232 238 241 241 243 244 244 246 249 253 259 264 269 273 276 276 274 273 274 278 283 286 289 293 296 299 301 302 303 306 308 309 314 319 319 317 313 310 307 304 302 301 301 300 299 297 296 295 295 295 294 294 297 302
213 214 214 213 213 213 213 211 207 206 209 210 210 210 211 211 210 213 217 219 221 225 227 226 227 228 229 230 229 228 227 230 237 242 242 242 244 246 247 250 254 259 263 268 271 274 275 276 275 276 277 279 283 286 289 292 295 297 298 299 303 304 307 313 318 320 318 315 311 307 304 303 303 302 300 299 298 298 298 297 296 293 293 295 297
213 214 214 214 213 213 213 212 208 205 206 210 211 210 211 213 213 212 215 218 220 223 226 226 226 227 228 229 230 229 228 229 235 242 242 241 242 245 246 249 254 259 262 265 268 270 273 276 277 278 278 279 281 283 285 288 291 292 293 295 298 300 303 310 315 316 317 317 314 309 305 304 303 303 301 300 300 300 299 298 296 294 295 295 294
212 213 213 213 213 213 212 212 209 207 206 208 211 211 211 214 216 214 214 216 218 221 224 225 225 225 226 227 228 228 228 227 231 239 244 243 241 243 246 249 254 258 261 263 265 267 269 272 275 277 278 279 280 281 283 285 287 288 289 290 292 295 299 305 309 310 312 315 314 310 306 305 303 303 303 302 301 300 299 297 296 296 296 295 292
211 213 213 213 213 212 212 211 210 208 207 208 211 211 210 213 216 214 213 214 216 219 222 224 224 225 225 226 227 227 226 226 229 237 243 241 239 244 249 251 253 257 259 262 264 265 267 269 271 273 276 278 279 280 281 282 284 285 285 286 287 291 295 299 302 304 307 311 312 310 307 306 304 303 303 302 301 299 297 296 297 298 298 295 294
211 212 213 213 212 212 211 209 209 209 208 208 211 212 210 212 216 215 214 216 218 221 223 224 225 226 226 226 228 229 228 228 231 236 238 237 240 247 250 252 254 256 258 260 262 264 265 267 269 272 274 277 278 278 278 280 281 281 282 283 285 288 292 295 298 299 302 306 310 309 308 307 304 302 300 299 297 296 295 296 298 299 298 297 297
211 211 212 212 212 212 211 209 209 210 210 209 212 213 212 213 216 215 214 216 220 223 225 224 223 225 226 227 229 231 231 231 233 235 237 241 246 248 248 250 253 254 256 258 261 263 264 265 269 272 274 275 276 276 276 277 278 278 279 281 284 288 291 294 296 297 299 305 309 310 308 307 303 299 298 296 295 295 295 297 298 298 298 299 299
213 211 211 212 212 213 214 212 210 210 210 210 212 214 215 214 215 214 215 217 220 224 225 224 222 224 226 227 229 232 233 233 235 236 237 242 248 248 246 247 249 252 254 256 259 262 263 265 269 271 272 274 274 274 275 276 277 278 279 281 285 289 291 292 293 294 298 304 309 310 308 306 303 300 298 296 296 296 297 298 299 298 298 299 299
215 212 211 212 213 215 215 214 212 211 211 211 212 214 216 216 215 215 217 218 219 221 224 223 222 223 226 227 229 231 233 234 236 237 237 241 246 248 246 245 247 250 251 253 258 262 263 266 270 270 270 272 274 274 275 276 276 277 279 283 287 290 290 289 289 291 297 304 308 308 307 307 306 303 300 297 297 297 298 299 300 300 299 299 299
216 214 212 212 213 215 215 215 213 211 211 211 212 214 217 218 217 218 219 220 220 222 224 223 223 224 225 227 229 230 232 234 236 236 236 239 243 245 246 247 249 250 250 253 259 264 265 267 271 270 270 272 274 274 274 274 273 276 280 285 287 288 286 286 287 291 297 302 303 304 305 307 308 307 303 300 297 297 299 300 301 301 300 299 299
215 216 215 213 213 215 216 216 214 211 210 211 213 214 217 218 219 219 220 221 222 223 225 226 226 226 226 227 229 230 232 233 234 235 237 239 241 242 246 250 253 253 254 257 263 266 267 269 271 270 269 269 270 270 271 271 272 277 280 283 283 283 283 285 287 291 295 299 299 301 303 306 308 309 306 301 299 298 300 301 301 301 300 299 299
214 215 216 215 214 214 216 217 215 213 211 211 213 215 217 218 219 219 220 221 222 224 226 228 229 229 228 228 229 231 233 234 236 237 240 242 242 243 246 252 256 256 257 260 265 269 269 270 271 269 267 267 267 267 269 271 273 275 277 278 279 280 282 284 286 290 293 295 295 298 302 305 308 309 307 303 299 299 300 300 300 299 298 297 298
214 214 215 215 214 214 216 217 217 215 213 212 212 214 216 218 219 219 219 221 222 223 224 227 228 229 229 230 231 232 234 235 237 239 241 244 246 247 250 253 256 256 258 262 267 270 270 271 270 269 268 268 267 268 270 272 272 271 272 274 276 278 280 282 285 288 290 290 292 295 299 303 307 309 308 306 303 301 301 300 299 297 297 298 299
215 214 215 215 214 214 215 217 217 217 215 213 213 214 216 218 219 219 220 221 221 222 224 226 227 228 229 231 232 234 235 237 239 241 244 247 249 250 252 253 254 254 256 260 264 267 268 269 269 269 270 270 270 270 271 271 270 271 272 273 274 277 279 281 284 286 286 285 288 292 297 303 309 313 314 312 309 305 301 298 297 297 297 298 299
Height
11006 11006 11008 11010 11010 11010 11010 11009 11008 11007 11006 11006 11006 11007 11008 11009 11010 11011 11013 11015 11017 11018 11018 11019 11019 11019 11019 11020 11020 11021 11021 11022 11022 11022 11022 11023 11023 11024 11024 11025 11025 11025 11025 11026 11026 11026 11026 11025 11024 11024 11023 11022 11021 11020 11019 11018 11016 11015 11014 11013 11012 11011 11009 11007 11005 11004 11002 11000 10998 10996 10994 10992 10990 10988 10985 10983 10981 10978 10976 10973 10970 10968 10966 10964 10963
11004 11004 11006 11008 11009 11009 11009 11009 11008 11007 11005 11005 11006 11007 11008 11009 11010 11011 11013 11015 11017 11018 11019 11020 11020 11020 11021 11021 11021 11022 11022 11023 11023 11023 11023 11024 11025 11025 11026 11026 11027 11027 11027 11027 11027 11027 11027 11026 11026 11026 11025 11024 11023 11022 11021 11020 11019 11017 11016 11015 11014 11013 11011 11009 11007 11006 11004 11002 11000 10998 10997 10995 10993 10990 10988 10985 10983 10980 10978 10975 10972 10969 10966 10964 10963
11002 11003 11004 11006 11007 11008 11008 11008 11008 11006 11005 11005 11006 11007 11008 11009 11010 11011 11013 11015 11017 11019 11020 11020 11021 11021 11022 11022 11022 11023 11023 11024 11024 11024 11024 11025 11026 11026 11027 11028 11028 11028 11028 11028 11028 11028 11028 11028 11027 11027 11026 11025 11024 11024 11023 11022 11020 11019 11018 11017 11016 11015 11013 11011 11009 11008 11006 11003 11002 11000 10999 10997 10995 10993 10991 10988 10985 10982 10980 10977 10974 10970 10968 10966 10964
10999 11001 11003 11004 11006 11007 11007 11007 11007 11006 11005 11005 11005 11006 11008 11009 11010 11011 11013 11015 11018 11019 11020 11021 11022 11023 11023 11023 11023 11024 11024 11025 11025 11025 11026 11026 11027 11028 11028 11029 11029 11029 11030 11030 11030 11030 11029 11029 11028 11028 11028 11027 11026 11025 11024 11023 11022 11021 11020 11019 11018 11017 11015 11013 11011 11010 11007 11005 11004 11002 11001 10999 10997 10996 10993 10990 10988 10986 10983 10980 10976 10973 10970 10968 10966
10997 10998 11001 11003 11004 11005 11006 11006 11006 11006 11005 11004 11005 11006 11007 11008 11010 11011 11013 11015 11018 11020 11021 11022 11022 11023 11024 11024 11024 11025 11025 11025 11026 11026 11027 11027 11028 11028 11029 11030 11030 11030 11031 11031 11031 11031 11030 11030 11030 11029 11029 11028 11027 11027 11026 11025 11024 11023 11022 11021 11020 11019 11018 11016 11014 11012 11010 11008 11006 11005 11003 11001 10999 10997 10995 10993 10991 10989 10987 10983 10979 10976 10973 10971 10970
10994 10995 10998 11001 11002 11004 11005 11004 11005 11005 11005 11004 11004 11005 11006 11008 11009 11011 11013 11015 11017 11019 11021 11022 11023 11023 11024 11025 11025 11025 11026 11026 11027 11027 11028 11028 11028 11029 11029 11030 11031 11031 11031 11032 11032 11031 11031 11031 11030 11030 11029 11029 11029 11028 11027 11026 11026 11025 11024 11023 11022 11021 11020 11017 11016 11014 11012 11010 11009 11007 11005 11003 11001 11000 10997 10996 10994 10992 10990 10987 10984 10980 10977 10975 10974
10991 10992 10995 10998 11000 11002 11003 11003 11004 11005 11004 11004 11004 11005 11006 11008 11009 11011 11013 11015 11017 11019 11020 11021 11022 11024 11025 11025 11026 11026 11027 11027 11028 11028 11028 11029 11029 11029 11030 11031 11031 11032 11032 11032 11032 11032 11031 11031 11031 11030 11030 11030 11030 11029 11028 11028 11027 11026 11025 11024 11023 11022 11021 11019 11018 11016 11014 11013 11011 11010 11008 11005 11004 11002 11000 10999 10997 10996 10994 10990 10988 10985 10982 10980 10979
10988 10990 10992 10996 10998 10999 11001 11001 11002 11003 11004 11004 11004 11004 11006 11008 11009 11011 11013 11014 11016 11018 11019 11021 11022 11024 11025 11026 11026 11027 11027 11028 11028 11029 11029 11030 11030 11030 11031 11031 11031 11032 11032 11032 11032 11032 11032 11032 11032 11031 11031 11031 11031 11030 11029 11028 11028 11027 11026 11025 11024 11023 11022 11021 11019 11018 11016 11015 11014 11012 11010 11008 11007 11005 11003 11001 11000 10999 10997 10994 10992 10990 10987 10986 10985
10985 10987 10989 10993 10995 10997 10998 11000 11001 11002 11003 11003 11003 11004 11005 11007 11009 11011 11012 11014 11015 11017 11018 11020 11022 11023 11025 11026 11027 11027 11027 11028 11028 11029 11029 11030 11030 11031 11031 11031 11032 11032 11032 11032 11032 11032 11032 11032 11032 11032 11032 11031 11031 11031 11030 11029 11029 11028 11027 11026 11025 11024 11024 11022 11021 11020 11019 11017 11015 11014 11012 11010 11009 11007 11005 11003 11002 11001 11000 10997 10996 10994 10993 10992 10989
10982 10985 10987 10990 10992 10994 10996 10998 10999 11000 11002 11002 11003 11003 11004 11006 11008 11010 11012 11013 11015 11016 11017 11019 11021 11023 11025 11026 11027 11027 11028 11028 11028 11029 11029 11030 11031 11031 11031 11032 11032 11032 11032 11032 11032 11032 11032 11032 11032 11032 11032 11032 11032 11031 11031 11031 11030 11029 11028 11027 11026 11025 11025 11024 11023 11022 11021 11019 11017 11015 11014 11013 11011 11009 11007 11006 11005 11004 11002 11001 11000 10998 10997 10996 10993
10979 10982 10985 10987 10989 10990 10993 10996 10997 10999 11000 11001 11002 11002 11004 11005 11008 11010 11011 11013 11014 11015 11016 11018 11020 11022 11024 11026 11027 11027 11028 11028 11028 11029 11030 11030 11031 11031 11032 11032 11032 11032 11032 11033 11033 11033 11033 11033 11033 11033 11033 11032 11032 11032 11032 11032 11031 11030 11029 11028 11027 11026 11026 11025 11024 11023 11022 11020 11019 11017 11016 11015 11014 11012 11010 11008 11007 11006 11005 11004 11003 11002 11001 10999 10997
10976 10979 10982 10984 10986 10988 10991 10994 10995 10997 10999 11000 11001 11001 11003 11004 11006 11009 11010 11012 11013 11015 11016 11017 11019 11022 11024 11025 11026 11027 11027 11028 11028 11029 11030 11030 11031 11031 11032 11032 11032 11032 11033 11033 11033 11033 11033 11033 11033 11033 11033 11033 11033 11033 11032 11032 11031 11031 11030 11029 11028 11028 11027 11026 11026 11025 11023 11022 11020 11019 11018 11017 11016 11014 11013 11011 11009 11008 11008 11006 11005 11004 11003 11002 11001
10972 10975 10978 10980 10983 10986 10989 10991 10993 10995 10997 10998 10999 11000 11002 11003 11005 11007 11010 11011 11013 11015 11016 11017 11019 11021 11023 11025 11026 11027 11027 11028 11028 11029 11030 11030 11031 11031 11031 11032 11032 11033 11033 11033 11033 11033 11033 11033 11033 11033 11033 11033 11033 11033 11033 11032 11032 11032 11031 11030 11029 11029 11028 11027 11027 11026 11024 11023 11022 11021 11019 11018 11017 11016 11015 11013 11012 11011 11010 11009 11007 11005 11005 11004 11003
10969 10972 10975 10976 10980 10983 10986 10988 10991 10993 10994 10996 10997 10999 11000 11002 11003 11006 11008 11010 11012 11014 11016 11017 11019 11020 11022 11024 11025 11026 11027 11028 11028 11029 11029 11030 11030 11031 11031 11031 11032 11032 11033 11033 11033 11033 11033 11033 11033 11033 11033 11033 11033 11033 11033 11033 11033 11032 11032 11031 11030 11030 11029 11028 11027 11026 11026 11025 11024 11022 11021 11020 11019 11017 11016 11016 11014 11013 11012 11011 11009 11008 11007 11005 11004
10966 10969 10971 10973 10977 10980 10983 10985 10988 10990 10993 10994 10996 10997 10999 11001 11002 11004 11006 11008 11010 11013 11015 11017 11019 11020 11021 11023 11025 11026 11027 11028 11028 11029 11029 11030 11030 11031 11031 11031 11031 11032 11032 11033 11033 11033 11033 11033 11033 11033 11033 11033 11033 11033 11033 11033 11033 11033 11032 11032 11031 11030 11029 11028 11027 11027 11027 11026 11025 11024 11022 11021 11020 11019 11018 11017 11016 11015 11014 11012 11011 11009 11008 11007 11005
10964 10966 10968 10971 10974 10977 10980 10983 10986 10988 10991 10993 10994 10996 10997 10999 11001 11002 11004 11007 11009 11011 11014 11016 11018 11020 11021 11022 11024 11025 11026 11027 11028 11029 11029 11029 11030 11031 11031 11031 11031 11032 11032 11033 11033 11033 11033 11033 11033 11033 11033 11033 11033 11033 11033 11033 11033 11033 11033 11032 11032 11031 11030 11029 11028 11027 11027 11026 11025 11025 11024 11023 11021 11020 11019 11019 11017 11017 11015 11013 11012 11011 11009 11008 11007
10962 10964 10966 10969 10972 10975 10978 10981 10983 10986 10989 10991 10993 10994 10995 10997 10999 11000 11002 11004 11007 11009 11011 11014 11016 11018 11020 11021 11023 11024 11025 11027 11028 11028 11029 11029 11030 11030 11031 11031 11031 11031 11032 11032 11033 11033 11033 11033 11033 11033 11033 11033 11033 11033 11033 11033 11033 11033 11033 11033 11032 11031 11031 11030 11029 11028 11027 11027 11026 11026 11025 11024 11023 11022 11021 11020 11019 11018 11016 11015 11014 11012 11010 11009 11008
10960 10963 10965 10967 10969 10972 10975 10978 10981 10984 10987 10989 10990 10992 10993 10995 10997 10998 11000 11002 11004 11007 11009 11011 11014 11016 11018 11020 11021 11023 11024 11026 11027 11027 11028 11029 11029 11030 11031 11031 11031 11031 11031 11032 11032 11033 11033 11033 11033 11033 11033 11033 11033 11033 11033 11033 11033 11033 11033 11033 11033 11032 11031 11031 11030 11029 11028 11027 11027 11026 11025 11024 11024 11023 11022 11020 11019 11018 11017 11016 11015 11013 11012 11010 11009
10957 10960 10963 10965 10968 10970 10974 10977 10979 10982 10984 10986 10988 10989 10991 10993 10995 10997 10998 11000 11002 11005 11006 11008 11011 11013 11016 11017 11019 11021 11023 11024 11025 11026 11027 11028 11029 11030 11030 11030 11030 11030 11031 11031 11032 11032 11032 11033 11033 11033 11033 11033 11032 11032 11033 11033 11033 11033 11033 11033 11033 11032 11032 11031 11031 11030 11029 11028 11027 11027 11026 11025 11025 11023 11022 11021 11020 11019 11018 11017 11016 11015 11013 11012 11011
10953 10957 10960 10963 10966 10969 10971 10974 10977 10979 10982 10984 10986 10988 10990 10992 10994 10995 10997 10999 11000 11002 11004 11006 11008 11010 11012 11014 11016 11018 11019 11021 11023 11024 11026 11027 11028 11028 11029 11029 11030 11030 11030 11030 11031 11031 11032 11032 11032 11032 11032 11032 11032 11032 11032 11032 11032 11032 11032 11032 11032 11032 11032 11032 11031 11030 11030 11029 11028 11027 11027 11026 11025 11024 11022 11021 11020 11019 11018 11017 11016 11015 11014 11013 11012
10950 10954 10958 10961 10963 10966 10969 10972 10974 10977 10980 10982 10984 10986 10988 10990 10992 10994 10995 10997 10998 11000 11002 11005 11007 11009 11010 11011 11013 11014 11016 11018 11020 11022 11024 11025 11026 11027 11028 11028 11029 11029 11029 11029 11030 11030 11031 11031 11032 11032 11032 11032 11032 11031 11031 11032 11032 11032 11032 11032 11032 11032 11032 11031 11031 11030 11030 11029 11028 11027 11026 11026 11025 11024 11023 11022 11021 11020 11019 11018 11017 11016 11015 11013 11012
10945 10950 10954 10957 10960 10963 10966 10969 10971 10974 10976 10979 10982 10984 10986 10988 10990 10991 10993 10995 10996 10998 11000 11003 11006 11008 11010 11011 11011 11012 11013 11014 11016 11019 11021 11022 11023 11025 11026 11027 11027 11028 11028 11028 11028 11029 11030 11030 11031 11031 11031 11031 11031 11031 11031 11031 11031 11031 11031 11031 11031 11031 11031 11031 11030 11030 11029 11029 11028 11027 11026 11025 11024 11024 11023 11022 11021 11020 11019 11018 11017 11016 11015 11013 11012
10940 10945 10949 10952 10955 10958 10962 10965 10968 10971 10974 10977 10980 10982 10984 10986 10987 10989 10991 10993 10994 10996 10998 11000 11002 11005 11008 11010 11010 11010 11010 11011 11013 11015 11017 11019 11021 11022 11024 11025 11026 11026 11027 11027 11027 11027 11028 11029 11030 11030 11030 11030 11030 11030 11030 11030 11030 11030 11030 11030 11030 11030 11030 11030 11029 11029 11029 11028 11028 11027 11026 11025 11024 11023 11022 11021 11021 11020 11019 11018 11017 11016 11015 11014 11012
10934 10939 10943 10946 10950 10954 10958 10961 10964 10967 10971 10974 10977 10979 10981 10983 10985 10987 10989 10991 10993 10994 10996 10998 11000 11002 11005 11007 11008 11008 11008 11008 11009 11011 11013 11015 11018 11020 11021 11023 11024 11024 11025 11025 11025 11026 11027 11028 11028 11029 11029 11028 11028 11028 11029 11029 11029 11029 11029 11029 11029 11029 11029 11029 11028 11028 11028 11027 11027 11026 11025 11025 11024 11022 11021 11021 11020 11019 11018 11017 11016 11016 11015 11014 11012
10929 10933 10937 10942 10946 10949 10953 10956 10960 10964 10968 10971 10974 10976 10978 10980 10983 10985 10987 10989 10991 10993 10994 10996 10998 11000 11003 11004 11005 11006 11006 11006 11007 11008 11010 11012 11014 11016 11018 11020 11021 11022 11023 11023 11023 11024 11025 11026 11027 11027 11027 11027 11027 11027 11027 11028 11028 11027 11027 11027 11027 11027 11028 11027 11027 11027 11027 11026 11026 11025 11025 11024 11023 11022 11021 11020 11019 11018 11017 11016 11015 11014 11014 11013 11011
10929 10932 10938 10943 10945 10948 10951 10954 10958 10961 10964 10968 10971 10973 10975 10978 10981 10983 10986 10987 10989 10991 10993 10995 10996 10998 11000 11001 11003 11003 11004 11004 11006 11006 11008 11009 11011 11013 11015 11017 11018 11020 11021 11021 11021 11022 11023 11024 11025 11025 11025 11025 11025 11025 11026 11026 11026 11026 11026 11026 11026 11026 11026 11026 11026 11026 11025 11025 11024 11024 11023 11023 11022 11021 11020 11019 11018 11017 11016 11015 11014 11013 11012 11011 11010
10927 10931 10936 10941 10944 10948 10951 10954 10958 10960 10962 10965 10968 10971 10973 10976 10979 10981 10984 10986 10988 10990 10992 10993 10995 10996 10997 10998 10999 11000 11001 11002 11004 11005 11006 11007 11008 11009 11012 11013 11015 11017 11018 11019 11020 11020 11021 11022 11022 11023 11023 11023 11023 11024 11024 11024 11025 11025 11024 11024 11024 11025 11025 11025 11024 11024 11024 11023 11023 11022 11022 11021 11021 11020 11019 11018 11017 11016 11015 11014 11013 11012 11011 11010 11008
10921 10927 10930 10934 10938 10942 10946 10951 10956 10959 10962 10965 10967 10970 10972 10975 10978 10980 10982 10985 10987 10988 10990 10992 10993 10994 10994 10995 10996 10997 10998 10999 11001 11003 11004 11004 11005 11006 11008 11010 11012 11014 11015 11017 11017 11018 11019 11019 11020 11021 11021 11021 11022 11022 11022 11023 11023 11023 11023 11022 11022 11023 11023 11023 11023 11022 11022 11021 11021 11021 11020 11020 11019 11018 11018 11017 11016 11014 11013 11012 11011 11010 11009 11008 11007
10914 10921 10926 10930 10933 10937 10942 10947 10951 10954 10958 10962 10966 10970 10973 10975 10978 10980 10982 10985 10986 10987 10989 10990 10991 10992 10992 10992 10993 10994 10995 10996 10998 10999 11000 11002 11003 11004 11005 11007 11009 11011 11013 11014 11015 11016 11016 11017 11017 11018 11019 11019 11020 11020 11021 11021 11021 11021 11021 11021 11021 11021 11021 11021 11021 11021 11020 11020 11019 11019 11018 11018 11017 11016 11015 11015 11014 11013 11011 11010 11009 11007 11006 11005 11004
10908 10914 10920 10925 10929 10933 10939 10944 10947 10949 10952 10956 10959 10964 10969 10974 10977 10979 10981 10984 10985 10985 10986 10986 10987 10988 10990 10991 10991 10992 10993 10994 10995 10996 10998 10999 11001 11002 11003 11004 11006 11008 11010 11012 11013 11013 11014 11014 11015 11016 11016 11017 11018 11018 11019 11019 11019 11019 11019 11019 11019 11019 11019 11019 11019 11019 11019 11018 11018 11017 11016 11016 11015 11014 11013 11013 11011 11010 11009 11008 11007 11005 11004 11003 11001
10903 10907 10912 10919 10924 10928 10933 10937 10941 10945 10948 10951 10953 10956 10961 10969 10976 10979 10980 10981 10982 10981 10981 10981 10981 10980 10981 10982 10984 10987 10990 10993 10994 10995 10996 10997 10999 11000 11001 11002 11004 11005 11007 11009 11010 11011 11011 11012 11013 11013 11014 11015 11015 11016 11016 11017 11017 11017 11017 11017 11017 11017 11016 11016 11016 11016 11016 11016 11016 11015 11015 11014 11013 11012 11011 11010 11009 11008 11007 11005 11004 11003 11001 11000 10999
10897 10900 10905 10913 10918 10921 10927 10931 10935 10939 10943 10947 10951 10954 10956 10960 10969 10978 10980 10980 10980 10979 10977 10977 10976 10974 10972 10972 10973 10978 10985 10990 10993 10995 10996 10996 10997 10998 10999 11000 11001 11003 11005 11006 11007 11008 11009 11010 11010 11010 11011 11012 11013 11014 11014 11014 11014 11014 11014 11014 11014 11014 11013 11013 11013 11013 11013 11013 11013 11012 11012 11011 11011 11009 11008 11008 11006 11005 11004 11002 11001 11000 10999 10998 10997
10888 10893 10900 10908 10913 10916 10921 10925 10929 10933 10937 10941 10948 10955 10957 10955 10958 10968 10976 10979 10978 10976 10974 10974 10974 10973 10972 10970 10972 10975 10979 10984 10989 10992 10994 10995 10995 10996 10997 10998 11000 11001 11003 11004 11005 11006 11006 11007 11007 11007 11008 11009 11010 11011 11011 11012 11012 11012 11012 11011 11011 11010 11010 11010 11010 11010 11010 11010 11009 11009 11008 11008 11008 11007 11006 11005 11003 11002 11001 10999 10998 10997 10996 10995 10994
10880 10885 10892 10900 10905 10908 10912 10917 10920 10924 10929 10935 10942 10949 10953 10953 10951 10953 10961 10971 10975 10973 10971 10969 10969 10970 10971 10972 10975 10976 10977 10980 10983 10988 10991 10992 10993 10993 10995 10996 10998 10999 11000 11002 11003 11004 11004 11004 11005 11005 11005 11005 11006 11008 11009 11009 11009 11009 11009 11009 11008 11007 11007 11006 11006 11006 11006 11006 11005 11005 11005 11004 11004 11003 11003 11002 11000 10999 10997 10996 10995 10994 10993 10992 10991
10872 10876 10883 10890 10895 10898 10903 10909 10913 10917 10923 10930 10935 10938 10942 10946 10946 10945 10947 10954 10962 10966 10966 10964 10964 10966 10968 10972 10975 10977 10978 10979 10981 10983 10986 10989 10990 10991 10992 10993 10995 10997 10998 11000 11001 11001 11001 11002 11002 11003 11003 11003 11003 11005 11006 11006 11007 11007 11006 11006 11005 11005 11004 11003 11003 11003 11003 11003 11002 11001 11000 11000 11000 10999 10999 10998 10997 10995 10994 10993 10992 10991 10990 10989 10989
10862 10867 10873 10880 10886 10890 10895 10901 10907 10911 10917 10924 10929 10932 10935 10937 10941 10943 10942 10941 10944 10949 10954 10957 10960 10963 10965 10968 10972 10975 10977 10978 10980 10981 10983 10985 10988 10989 10990 10990 10992 10994 10996 10997 10999 10999 11000 11000 11000 11000 11000 11000 11001 11002 11002 11003 11004 11004 11003 11003 11002 11002 11001 11000 11000 10999 10999 10999 10998 10997 10996 10995 10995 10995 10994 10994 10993 10992 10991 10990 10989 10988 10987 10986 10986
10852 10858 10865 10872 10878 10883 10888 10894 10899 10905 10912 10920 10925 10927 10929 10931 10934 10939 10940 10938 10938 10940 10944 10949 10955 10959 10961 10963 10967 10971 10974 10976 10978 10979 10981 10983 10985 10987 10988 10988 10989 10991 10992 10994 10996 10997 10998 10998 10998 10997 10997 10998 10999 10999 10999 11000 11000 11000 11000 10999 10999 10998 10998 10998 10997 10996 10995 10995 10995 10994 10993 10991 10990 10990 10989 10989 10988 10987 10987 10986 10986 10985 10984 10984 10984
10843 10850 10858 10865 10870 10876 10882 10888 10894 10900 10906 10913 10917 10918 10919 10923 10928 10932 10935 10937 10937 10938 10940 10944 10949 10953 10957 10960 10963 10967 10970 10973 10974 10976 10979 10981 10983 10984 10985 10986 10987 10989 10990 10991 10992 10993 10994 10995 10995 10995 10995 10995 10995 10996 10996 10996 10996 10996 10996 10995 10994 10994 10994 10994 10994 10993 10992 10991 10991 10990 10988 10987 10986 10985 10985 10984 10983 10982 10982 10982 10982 10981 10981 10982 10982
10835 10842 10849 10856 10862 10867 10873 10880 10887 10894 10899 10904 10909 10910 10911 10916 10922 10926 10929 10931 10932 10934 10936 10940 10943 10948 10952 10956 10960 10964 10967 10969 10970 10973 10975 10977 10979 10981 10983 10983 10985 10986 10987 10988 10989 10989 10990 10990 10991 10992 10992 10992 10992 10992 10992 10992 10992 10992 10992 10991 10990 10989 10989 10989 10990 10989 10989 10988 10987 10985 10984 10982 10982 10981 10980 10979 10978 10977 10977 10978 10977 10977 10977 10978 10978
10826 10833 10840 10847 10852 10858 10864 10872 10879 10885 10890 10895 10900 10904 10907 10911 10916 10919 10921 10923 10926 10929 10932 10935 10939 10944 10948 10952 10956 10959 10962 10964 10967 10970 10972 10974 10976 10978 10979 10980 10981 10983 10985 10986 10986 10986 10986 10986 10987 10988 10989 10989 10989 10989 10989 10989 10989 10989 10988 10987 10986 10985 10984 10984 10985 10984 10984 10984 10983 10981 10980 10978 10977 10977 10976 10975 10974 10973 10972 10972 10972 10972 10973 10974 10973
10816 10823 10830 10837 10843 10849 10856 10864 10871 10878 10883 10887 10892 10896 10901 10905 10909 10911 10913 10916 10920 10923 10926 10930 10935 10939 10943 10947 10951 10954 10957 10960 10964 10966 10969 10970 10972 10974 10975 10976 10978 10980 10981 10982 10983 10982 10982 10982 10982 10983 10984 10985 10985 10985 10985 10985 10985 10985 10984 10984 10983 10981 10980 10980 10980 10979 10979 10979 10978 10977 10976 10974 10973 10972 10971 10970 10970 10968 10967 10966 10966 10967 10968 10969 10968
10807 10813 10819 10826 10833 10840 10847 10854 10863 10870 10875 10880 10885 10889 10894 10899 10901 10903 10905 10910 10914 10917 10921 10926 10932 10935 10938 10941 10945 10949 10952 10956 10959 10963 10965 10966 10968 10971 10972 10973 10974 10976 10977 10978 10979 10979 10978 10978 10978 10978 10979 10980 10981 10981 10981 10981 10981 10981 10980 10980 10979 10978 10977 10977 10976 10975 10974 10974 10974 10973 10971 10970 10969 10967 10967 10966 10965 10964 10962 10961 10962 10962 10963 10963 10963
10797 10802 10808 10816 10823 10830 10837 10845 10853 10860 10867 10872 10876 10880 10886 10891 10892 10894 10900 10905 10908 10911 10916 10923 10928 10931 10934 10937 10940 10943 10948 10952 10955 10958 10960 10962 10965 10967 10968 10969 10970 10971 10972 10973 10974 10974 10974 10974 10974 10974 10974 10975 10976 10977 10977 10977 10976 10976 10976 10976 10975 10975 10975 10974 10973 10971 10970 10970 10970 10969 10967 10966 10965 10963 10962 10961 10960 10959 10958 10957 10957 10957 10957 10957 10957
10785 10791 10798 10805 10813 10819 10827 10835 10843 10850 10857 10863 10867 10872 10877 10881 10883 10888 10895 10899 10902 10906 10912 10918 10923 10926 10928 10932 10934 10938 10942 10947 10950 10953 10955 10957 10960 10962 10964 10964 10965 10966 10967 10968 10969 10969 10969 10969 10969 10970 10970 10970 10970 10971 10971 10971 10972 10972 10972 10972 10972 10972 10972 10972 10970 10968 10967 10967 10967 10965 10964 10963 10961 10959 10958 10957 10956 10955 10954 10953 10953 10952 10952 10951 10951
10773 10782 10788 10794 10801 10808 10815 10824 10833 10841 10847 10853 10858 10864 10868 10870 10875 10882 10888 10892 10895 10901 10907 10912 10916 10920 10923 10926 10930 10933 10938 10941 10945 10948 10951 10952 10954 10956 10958 10959 10960 10961 10962 10962 10963 10964 10964 10964 10965 10965 10965 10965 10965 10966 10966 10966 10967 10968 10969 10969 10969 10969 10969 10968 10966 10964 10964 10964 10964 10963 10961 10959 10957 10956 10954 10953 10951 10951 10950 10949 10949 10948 10947 10946 10945
10762 10771 10778 10783 10789 10795 10802 10812 10821 10830 10837 10843 10849 10854 10857 10860 10866 10874 10880 10884 10889 10895 10901 10906 10911 10914 10918 10921 10925 10929 10933 10936 10940 10943 10945 10947 10948 10950 10952 10953 10955 10955 10956 10956 10957 10958 10959 10959 10960 10959 10959 10959 10961 10962 10962 10962 10962 10963 10964 10965 10965 10965 10964 10964 10962 10961 10961 10961 10961 10959 10958 10956 10954 10953 10951 10950 10948 10947 10946 10945 10945 10944 10942 10941 10940
10750 10759 10766 10770 10776 10783 10791 10800 10810 10819 10827 10834 10840 10844 10847 10851 10858 10865 10871 10877 10883 10889 10895 10900 10904 10908 10912 10916 10920 10924 10927 10930 10934 10937 10940 10942 10943 10944 10945 10946 10948 10948 10949 10950 10951 10952 10953 10954 10954 10954 10954 10955 10956 10957 10956 10956 10957 10958 10959 10960 10961 10960 10959 10959 10958 10957 10958 10958 10957 10955 10954 10952 10951 10950 10949 10947 10945 10943 10942 10942 10941 10940 10939 10937 10935
10739 10748 10755 10761 10768 10776 10783 10791 10799 10808 10817 10825 10831 10835 10838 10842 10849 10857 10863 10870 10877 10882 10888 10892 10897 10901 10906 10911 10914 10917 10920 10924 10928 10931 10934 10936 10937 10938 10938 10938 10939 10941 10943 10944 10946 10947 10948 10948 10948 10948 10949 10950 10951 10951 10949 10949 10951 10953 10954 10955 10955 10954 10954 10954 10953 10954 10955 10954 10952 10951 10950 10949 10948 10947 10946 10944 10942 10940 10939 10938 10937 10936 10934 10932 10931
10728 10736 10743 10752 10761 10768 10775 10782 10790 10798 10807 10815 10821 10825 10829 10834 10841 10849 10856 10863 10869 10874 10879 10884 10888 10894 10899 10904 10907 10910 10914 10918 10922 10925 10927 10929 10930 10932 10933 10932 10933 10935 10937 10939 10940 10941 10941 10941 10942 10942 10943 10944 10944 10943 10942 10944 10947 10949 10949 10949 10949 10949 10949 10949 10949 10950 10951 10949 10947 10946 10946 10945 10945 10943 10942 10941 10939 10937 10936 10934 10933 10931 10929 10928 10927
10717 10725 10733 10742 10751 10759 10765 10772 10780 10788 10796 10804 10810 10816 10821 10827 10834 10842 10850 10855 10861 10866 10871 10876 10880 10886 10891 10896 10900 10904 10907 10911 10914 10917 10920 10923 10925 10926 10927 10927 10928 10930 10932 10934 10936 10936 10936 10937 10937 10936 10937 10938 10938 10937 10938 10939 10941 10942 10943 10943 10943 10944 10945 10945 10946 10947 10947 10944 10943 10942 10942 10942 10941 10940 10938 10937 10935 10934 10933 10931 10929 10926 10924 10923 10923
10705 10714 10722 10731 10740 10748 10756 10764 10772 10779 10786 10793 10800 10807 10814 10821 10828 10835 10842 10847 10852 10858 10864 10868 10873 10879 10884 10888 10892 10897 10900 10904 10908 10912 10915 10918 10919 10918 10919 10922 10924 10926 10928 10930 10931 10931 10931 10932 10932 10931 10931 10931 10932 10932 10933 10933 10934 10936 10938 10938 10938 10939 10940 10941 10942 10943 10942 10939 10938 10938 10939 10938 10938 10937 10935 10933 10931 10930 10928 10926 10925 10922 10921 10920 10919